When you browse on this site, cookies collect data to enhance your experience and personalize the content and advertising you see.
Visit our Privacy Policy to learn more. By continuing to use the site, you agree to this use of cookies and data.
  • In Österreich
  • Länderverzeichnis
  • Für 7 Tage
  • Wassertemperatur
  • Wetterkarte
  • News
  • Widgets
  • user-avatar
    Anmelden

    Stündliche Wetter Mikashevichi

    Heute, 29 Mai, Freitag

    Zeit Temperatur Niederschläge Wind Luftdruck Luftfeuchtigkeit
    00:00 +11°C° 0.1 mm 1 m/S 750 mmHg 93%
    01:00 +11°C° 0.1 mm 1 m/S 750 mmHg 94%
    02:00 +10°C° 0 mm 0 m/S 750 mmHg 95%
    03:00 +11°C° 0.7 mm 1 m/S 750 mmHg 95%
    04:00 +11°C° 0.7 mm 1 m/S 749 mmHg 95%
    05:00 +11°C° 0.7 mm 1 m/S 749 mmHg 96%
    06:00 +11°C° 0.6 mm 3 m/S 749 mmHg 94%
    07:00 +11°C° 0.6 mm 4 m/S 749 mmHg 93%
    08:00 +12°C° 0 mm 5 m/S 749 mmHg 93%
    09:00 +12°C° 0.3 mm 5 m/S 749 mmHg 93%
    10:00 +11°C° 0.3 mm 6 m/S 749 mmHg 92%
    11:00 +11°C° 0.3 mm 6 m/S 748 mmHg 92%
    12:00 +11°C° 0.1 mm 6 m/S 748 mmHg 91%
    13:00 +11°C° 0.1 mm 6 m/S 748 mmHg 90%
    14:00 +11°C° 0.1 mm 6 m/S 748 mmHg 89%
    15:00 +11°C° 0 mm 6 m/S 748 mmHg 87%
    16:00 +11°C° 0 mm 6 m/S 748 mmHg 86%
    17:00 +11°C° 0 mm 6 m/S 748 mmHg 84%
    18:00 +11°C° 0 mm 6 m/S 747 mmHg 84%
    19:00 +11°C° 0 mm 6 m/S 747 mmHg 83%
    20:00 +11°C° 0 mm 6 m/S 747 mmHg 83%
    21:00 +12°C° 0 mm 5 m/S 747 mmHg 83%
    22:00 +12°C° 0 mm 5 m/S 747 mmHg 84%
    23:00 +12°C° 0 mm 5 m/S 746 mmHg 84%

    Morgen, 30 Mai, Samstag

    Zeit Temperatur Niederschläge Wind Luftdruck Luftfeuchtigkeit
    00:00 +12°C° 0.1 mm 5 m/S 746 mmHg 85%
    01:00 +12°C° 0.1 mm 5 m/S 746 mmHg 87%
    02:00 +12°C° 0.1 mm 5 m/S 745 mmHg 88%
    03:00 +12°C° 0.1 mm 5 m/S 745 mmHg 89%
    04:00 +12°C° 0.1 mm 5 m/S 744 mmHg 90%
    05:00 +12°C° 0.1 mm 5 m/S 744 mmHg 92%
    06:00 +12°C° 0.3 mm 5 m/S 743 mmHg 92%
    07:00 +11°C° 0.3 mm 6 m/S 743 mmHg 92%
    08:00 +13°C° 0.3 mm 6 m/S 743 mmHg 92%
    09:00 +13°C° 1.1 mm 6 m/S 743 mmHg 94%
    10:00 +11°C° 1.1 mm 6 m/S 742 mmHg 95%
    11:00 +12°C° 1.1 mm 5 m/S 742 mmHg 96%
    12:00 +13°C° 1.2 mm 5 m/S 741 mmHg 96%
    13:00 +13°C° 1.2 mm 5 m/S 741 mmHg 95%
    14:00 +14°C° 1.2 mm 5 m/S 741 mmHg 94%
    15:00 +14°C° 1.9 mm 5 m/S 740 mmHg 95%
    16:00 +14°C° 1.9 mm 5 m/S 739 mmHg 96%
    17:00 +14°C° 1.9 mm 5 m/S 739 mmHg 97%
    18:00 +14°C° 3.6 mm 6 m/S 738 mmHg 96%
    19:00 +14°C° 3.6 mm 7 m/S 738 mmHg 96%
    20:00 +14°C° 3.6 mm 7 m/S 738 mmHg 96%
    21:00 +14°C° 1.1 mm 7 m/S 738 mmHg 96%
    22:00 +15°C° 1.1 mm 7 m/S 738 mmHg 96%
    23:00 +15°C° 1.1 mm 6 m/S 738 mmHg 96%

    übermorgen, 31 Mai, Sonntag

    Zeit Temperatur Niederschläge Wind Luftdruck Luftfeuchtigkeit
    00:00 +14°C° 0.3 mm 6 m/S 738 mmHg 96%
    01:00 +13°C° 0.3 mm 5 m/S 738 mmHg 96%
    02:00 +13°C° 0.3 mm 4 m/S 738 mmHg 97%
    03:00 +13°C° 0 mm 4 m/S 739 mmHg 97%
    04:00 +12°C° 0 mm 3 m/S 739 mmHg 96%
    05:00 +12°C° 0 mm 3 m/S 740 mmHg 96%
    06:00 +13°C° 0 mm 3 m/S 741 mmHg 95%
    07:00 +13°C° 0 mm 3 m/S 741 mmHg 94%
    08:00 +14°C° 0 mm 2 m/S 742 mmHg 93%
    09:00 +13°C° 0.8 mm 3 m/S 743 mmHg 94%
    10:00 +13°C° 0.8 mm 3 m/S 743 mmHg 95%
    11:00 +13°C° 0.8 mm 4 m/S 744 mmHg 96%
    12:00 +13°C° 1.1 mm 5 m/S 744 mmHg 95%
    13:00 +13°C° 1.1 mm 5 m/S 744 mmHg 95%
    14:00 +13°C° 1.1 mm 6 m/S 745 mmHg 94%
    15:00 +13°C° 0.2 mm 6 m/S 745 mmHg 92%
    16:00 +13°C° 0.2 mm 5 m/S 745 mmHg 90%
    17:00 +13°C° 0.2 mm 5 m/S 746 mmHg 88%
    18:00 +13°C° 0 mm 4 m/S 746 mmHg 87%
    19:00 +12°C° 0 mm 4 m/S 746 mmHg 87%
    20:00 +12°C° 0 mm 4 m/S 747 mmHg 87%
    21:00 +11°C° 0 mm 4 m/S 747 mmHg 88%
    22:00 +11°C° 0 mm 4 m/S 747 mmHg 89%
    23:00 +10°C° 0 mm 4 m/S 748 mmHg 90%

    1 Juni, Montag

    Zeit Temperatur Niederschläge Wind Luftdruck Luftfeuchtigkeit
    00:00 +10°C° 0 mm 4 m/S 748 mmHg 88%
    01:00 +10°C° 0 mm 4 m/S 748 mmHg 86%
    02:00 +10°C° 0 mm 4 m/S 749 mmHg 84%
    03:00 +8°C° 0 mm 5 m/S 749 mmHg 84%
    04:00 +8°C° 0 mm 5 m/S 749 mmHg 83%
    05:00 +7°C° 0 mm 5 m/S 749 mmHg 83%
    06:00 +8°C° 0 mm 5 m/S 750 mmHg 77%
    07:00 +9°C° 0 mm 6 m/S 750 mmHg 70%
    08:00 +10°C° 0 mm 7 m/S 751 mmHg 64%
    09:00 +11°C° 0 mm 6 m/S 751 mmHg 61%
    10:00 +13°C° 0 mm 6 m/S 751 mmHg 58%
    11:00 +14°C° 0 mm 6 m/S 751 mmHg 56%
    12:00 +14°C° 0 mm 6 m/S 751 mmHg 56%
    13:00 +14°C° 0 mm 6 m/S 751 mmHg 56%
    14:00 +14°C° 0 mm 6 m/S 751 mmHg 56%
    15:00 +14°C° 0 mm 5 m/S 751 mmHg 58%
    16:00 +13°C° 0 mm 5 m/S 751 mmHg 60%
    17:00 +13°C° 0 mm 5 m/S 751 mmHg 61%
    18:00 +12°C° 0 mm 4 m/S 751 mmHg 67%
    19:00 +10°C° 0 mm 3 m/S 751 mmHg 72%
    20:00 +9°C° 0 mm 2 m/S 751 mmHg 77%
    21:00 +8°C° 0 mm 2 m/S 751 mmHg 79%
    22:00 +7°C° 0 mm 2 m/S 751 mmHg 81%
    23:00 +7°C° 0 mm 2 m/S 751 mmHg 83%

    2 Juni, Dienstag

    Zeit Temperatur Niederschläge Wind Luftdruck Luftfeuchtigkeit
    00:00 +6°C° 0 mm 2 m/S 751 mmHg 84%
    01:00 +6°C° 0 mm 2 m/S 750 mmHg 86%
    02:00 +5°C° 0 mm 2 m/S 750 mmHg 88%
    03:00 +5°C° 0 mm 2 m/S 750 mmHg 88%
    04:00 +5°C° 0 mm 2 m/S 750 mmHg 87%
    05:00 +5°C° 0 mm 2 m/S 750 mmHg 87%
    06:00 +7°C° 0 mm 2 m/S 750 mmHg 80%
    07:00 +9°C° 0 mm 2 m/S 750 mmHg 73%
    08:00 +11°C° 0 mm 3 m/S 750 mmHg 66%
    09:00 +12°C° 0.1 mm 3 m/S 750 mmHg 62%
    10:00 +13°C° 0.1 mm 3 m/S 750 mmHg 57%
    11:00 +14°C° 0.1 mm 4 m/S 750 mmHg 53%
    12:00 +15°C° 0.1 mm 4 m/S 749 mmHg 53%
    13:00 +15°C° 0.1 mm 4 m/S 749 mmHg 54%
    14:00 +15°C° 0.1 mm 4 m/S 748 mmHg 55%
    15:00 +15°C° 0.3 mm 4 m/S 748 mmHg 58%
    16:00 +15°C° 0.3 mm 4 m/S 748 mmHg 62%
    17:00 +14°C° 0.3 mm 3 m/S 748 mmHg 65%
    18:00 +13°C° 0.1 mm 3 m/S 748 mmHg 72%
    19:00 +11°C° 0.1 mm 3 m/S 747 mmHg 78%
    20:00 +10°C° 0.1 mm 2 m/S 747 mmHg 85%
    21:00 +9°C° 0 mm 2 m/S 747 mmHg 87%
    22:00 +8°C° 0 mm 2 m/S 747 mmHg 90%
    23:00 +8°C° 0 mm 1 m/S 747 mmHg 92%

    3 Juni, Mittwoch

    Zeit Temperatur Niederschläge Wind Luftdruck Luftfeuchtigkeit
    00:00 +8°C° 0 mm 1 m/S 747 mmHg 93%
    01:00 +7°C° 0 mm 1 m/S 747 mmHg 93%
    02:00 +7°C° 0 mm 1 m/S 747 mmHg 94%
    03:00 +7°C° 0 mm 1 m/S 747 mmHg 93%
    04:00 +7°C° 0 mm 1 m/S 746 mmHg 93%
    05:00 +7°C° 0 mm 1 m/S 746 mmHg 93%
    06:00 +9°C° 0 mm 1 m/S 746 mmHg 86%
    07:00 +11°C° 0 mm 1 m/S 746 mmHg 78%
    08:00 +13°C° 0 mm 1 m/S 746 mmHg 71%
    09:00 +14°C° 0.1 mm 2 m/S 746 mmHg 65%
    10:00 +15°C° 0.1 mm 2 m/S 746 mmHg 59%
    11:00 +17°C° 0.1 mm 2 m/S 746 mmHg 53%
    12:00 +17°C° 0.1 mm 2 m/S 746 mmHg 51%
    13:00 +18°C° 0.1 mm 2 m/S 745 mmHg 49%
    14:00 +18°C° 0.1 mm 2 m/S 745 mmHg 48%
    15:00 +18°C° 0 mm 2 m/S 745 mmHg 51%
    16:00 +17°C° 0 mm 2 m/S 745 mmHg 54%
    17:00 +17°C° 0 mm 2 m/S 745 mmHg 56%
    18:00 +15°C° 0 mm 1 m/S 745 mmHg 63%
    19:00 +14°C° 0 mm 1 m/S 745 mmHg 69%
    20:00 +12°C° 0 mm 1 m/S 744 mmHg 75%
    21:00 +11°C° 0 mm 1 m/S 745 mmHg 78%
    22:00 +9°C° 0 mm 0 m/S 745 mmHg 81%
    23:00 +8°C° 0 mm 0 m/S 745 mmHg 84%
    Mehr zeigen